DH4SBM Weather Reports


Display with metric or nautical units.
time (UTC)temp
F
wind
direction
speed
MPH
gust
MPH
rain 1hr
in
rain 24hr
in
rain mn
in
humidity
%
barometer
mb
20260901053024 58 0 0.0 0.0 0.00 0.04 0.00 86 1022.6
20260901052023 58 0 0.0 0.0 0.00 0.04 0.00 86 1022.6
20260901051023 58 0 0.0 0.0 0.00 0.04 0.00 85 1022.6
20260901050023 59 0 0.0 0.0 0.00 0.04 0.00 85 1022.5
20260901045023 59 0 0.0 0.0 0.00 0.04 0.00 85 1022.4
20260901044023 59 0 0.0 0.0 0.00 0.04 0.00 85 1022.3
20260901043023 59 0 0.0 0.0 0.00 0.04 0.00 85 1022.3
20260901042022 59 0 0.0 0.0 0.00 0.04 0.00 84 1022.2
20260901041022 59 0 0.0 0.0 0.00 0.04 0.00 84 1022.2
20260901040022 59 0 1.0 0.0 0.00 0.04 0.00 83 1022.1
20260901035022 60 0 1.0 3.0 0.00 0.04 0.00 82 1022.2
20260901034024 60 0 1.0 3.0 0.00 0.04 0.00 82 1022.1
20260901033022 60 0 1.0 3.0 0.00 0.04 0.00 82 1022.1
20260901032021 60 0 1.0 3.0 0.00 0.04 0.00 82 1022.1
20260901031021 60 0 1.0 3.0 0.00 0.04 0.00 82 1021.9
20260901030021 60 0 1.0 3.0 0.00 0.04 0.00 82 1022.1
20260901025023 60 0 1.0 3.0 0.00 0.04 0.00 82 1022.0
20260901024023 60 0 1.0 3.0 0.00 0.04 0.00 82 1022.0
20260901023022 60 0 1.0 3.0 0.00 0.04 0.00 82 1022.1
20260901022022 60 225 1.0 3.0 0.00 0.04 0.00 82 1022.1
20260901021022 60 225 1.0 3.0 0.00 0.04 0.00 82 1021.9
20260901020738 60 225 1.0 4.0 0.00 0.04 0.00 82 1021.9
20260901015740 60 225 3.0 4.0 0.00 0.05 0.00 82 1021.9
20260901014739 60 225 1.0 4.0 0.00 0.05 0.00 82 1021.8
20260901013739 60 225 0.0 3.0 0.00 0.05 0.00 82 1021.8
20260901012739 60 0 0.0 0.0 0.00 0.05 0.00 82 1021.7
20260901011739 60 0 0.0 0.0 0.00 0.05 0.00 82 1021.6
20260901010739 60 0 0.0 4.0 0.00 0.05 0.00 82 1021.7
20260901005738 60 248 1.0 4.0 0.00 0.06 0.00 83 1021.7
20260901004738 60 248 1.0 4.0 0.00 0.06 0.00 83 1021.7
20260901003738 60 202 0.0 3.0 0.00 0.06 0.00 83 1021.7
20260901002738 60 0 0.0 4.0 0.00 0.06 0.00 83 1021.5
20260901001738 60 202 1.0 4.0 0.00 0.06 0.00 83 1021.5
20260901000737 60 202 0.0 4.0 0.00 0.06 0.00 82 1021.6
20260831235737 60 180 1.0 4.0 0.00 0.14 0.00 82 1021.5
20260831234737 60 180 1.0 4.0 0.00 0.14 0.00 82 1021.3
20260831233739 60 180 1.0 3.0 0.00 0.14 0.00 82 1021.2
20260831232739 60 180 2.0 6.0 0.00 0.14 0.00 82 1021.2
20260831231519 61 180 2.0 6.0 0.00 0.14 0.00 81 1021.2
20260831230519 61 158 1.0 4.0 0.00 0.14 0.00 80 1021.2
20260831225520 62 202 1.0 3.0 0.00 0.14 0.00 80 1021.2
20260831224519 62 225 1.0 4.0 0.00 0.14 0.00 79 1021.3
20260831223518 62 225 2.0 4.0 0.00 0.14 0.00 79 1021.3
20260831222518 62 225 0.0 3.0 0.00 0.14 0.00 80 1021.3
20260831221519 62 225 0.0 3.0 0.00 0.14 0.00 79 1021.2
20260831220519 62 225 1.0 3.0 0.00 0.14 0.00 79 1021.3
20260831215519 62 225 1.0 4.0 0.00 0.14 0.14 79 1021.0
20260831214519 62 225 1.0 3.0 0.00 0.14 0.14 79 1021.0
20260831213519 62 225 1.0 3.0 0.00 0.14 0.14 79 1020.9
20260831212518 62 225 1.0 3.0 0.00 0.14 0.14 79 1020.8
20260831211518 62 225 1.0 4.0 0.00 0.14 0.14 78 1020.7
20260831210518 62 225 1.0 3.0 0.00 0.14 0.14 78 1020.6
20260831205520 63 225 3.0 5.0 0.00 0.14 0.14 78 1020.5
20260831204520 63 225 3.0 7.0 0.00 0.14 0.14 77 1020.5
20260831203519 63 248 4.0 10.0 0.00 0.14 0.14 77 1020.5
20260831202519 63 225 4.0 8.0 0.00 0.14 0.14 78 1020.3
20260831201519 63 225 4.0 9.0 0.00 0.14 0.14 78 1020.3
20260831200519 63 202 3.0 6.0 0.00 0.14 0.14 78 1020.2
20260831195519 63 202 4.0 7.0 0.00 0.14 0.14 78 1020.2
20260831194518 64 225 5.0 9.0 0.00 0.14 0.14 78 1020.2
20260831193519 64 225 5.0 10.0 0.00 0.14 0.14 78 1020.3
20260831192519 64 225 6.0 13.0 0.00 0.14 0.14 78 1020.1
20260831191519 64 225 7.0 12.0 0.00 0.14 0.14 78 1020.1
20260831190519 64 225 7.0 15.0 0.00 0.14 0.14 78 1020.0
20260831185518 64 225 6.0 13.0 0.00 0.14 0.14 78 1019.7
20260831184518 64 225 6.0 16.0 0.00 0.14 0.14 79 1019.6
20260831183518 64 248 6.0 12.0 0.00 0.14 0.14 80 1019.4
20260831182518 64 248 5.0 11.0 0.00 0.14 0.14 80 1019.3
20260831181520 64 248 4.0 8.0 0.00 0.14 0.14 81 1019.0
20260831180519 64 225 6.0 12.0 0.00 0.14 0.14 81 1018.9
20260831175519 64 225 5.0 10.0 0.00 0.14 0.14 80 1018.8
20260831174519 64 248 9.0 17.0 0.00 0.14 0.14 80 1018.7
20260831173519 65 270 10.0 19.0 0.00 0.14 0.14 80 1019.0
20260831172519 64 292 6.0 14.0 0.00 0.14 0.14 81 1018.9
20260831171519 64 292 3.0 9.0 0.01 0.14 0.14 82 1018.5
20260831170518 64 270 5.0 10.0 0.03 0.14 0.14 81 1018.5
20260831165518 64 292 4.0 8.0 0.03 0.14 0.14 81 1018.4
20260831164518 64 292 7.0 13.0 0.03 0.14 0.14 80 1018.3
20260831163518 64 270 9.0 17.0 0.03 0.14 0.14 79 1018.6
20260831162518 65 270 10.0 17.0 0.03 0.14 0.14 80 1018.6
20260831161520 66 292 14.0 32.0 0.02 0.13 0.13 77 1018.7
20260831160519 71 270 15.0 33.0 0.00 0.11 0.11 64 1018.3
20260831155519 73 248 11.0 24.0 0.00 0.11 0.11 56 1017.7
20260831154519 74 248 9.0 17.0 0.00 0.11 0.11 55 1017.7
20260831153519 74 248 10.0 18.0 0.00 0.11 0.11 55 1017.6
20260831152518 73 270 10.0 20.0 0.00 0.11 0.11 56 1017.5
20260831151518 73 248 8.0 18.0 0.00 0.11 0.11 57 1017.5
20260831150517 73 225 6.0 14.0 0.00 0.11 0.11 55 1017.5
20260831145517 73 248 8.0 13.0 0.00 0.11 0.11 55 1017.6
20260831144517 74 292 7.0 12.0 0.00 0.11 0.11 56 1017.4
20260831143519 74 248 9.0 17.0 0.00 0.11 0.11 54 1017.4
20260831142518 73 270 10.0 19.0 0.00 0.11 0.11 57 1017.5
20260831141518 74 270 8.0 17.0 0.00 0.11 0.11 53 1017.5
20260831140518 74 270 9.0 14.0 0.00 0.11 0.11 53 1017.4
20260831135518 74 292 7.0 12.0 0.00 0.11 0.11 53 1017.4
20260831134518 74 292 7.0 14.0 0.00 0.11 0.11 54 1017.6
20260831134231 74 292 8.0 15.0 0.00 0.11 0.11 53 1017.6
20260831133231 74 292 9.0 18.0 0.00 0.11 0.11 54 1017.6
20260831132231 74 292 8.0 15.0 0.00 0.11 0.11 55 1017.7
20260831131231 74 292 9.0 16.0 0.00 0.11 0.11 55 1017.8
20260831130231 76 270 11.0 20.0 0.00 0.11 0.11 52 1017.9
20260831125232 76 248 9.0 18.0 0.00 0.11 0.11 51 1017.8
20260831124232 76 225 11.0 24.0 0.00 0.11 0.11 49 1017.9
20260831123232 76 225 12.0 22.0 0.00 0.11 0.11 52 1017.8
20260831122232 74 248 10.0 21.0 0.00 0.11 0.11 53 1017.8
20260831121232 74 225 10.0 17.0 0.00 0.11 0.11 55 1017.9
20260831120231 74 248 9.0 18.0 0.00 0.11 0.11 55 1017.9
20260831115231 74 248 10.0 21.0 0.00 0.11 0.11 56 1017.9
20260831114231 73 225 9.0 26.0 0.00 0.11 0.11 58 1018.0
20260831113233 72 248 8.0 15.0 0.00 0.11 0.11 59 1018.0
20260831112233 71 248 7.0 14.0 0.00 0.11 0.11 59 1018.1
20260831111232 72 248 9.0 18.0 0.00 0.11 0.11 57 1018.1
20260831110232 72 248 8.0 16.0 0.00 0.11 0.11 56 1018.1
20260831105232 72 248 10.0 17.0 0.00 0.11 0.11 58 1018.2
20260831104232 72 248 9.0 17.0 0.00 0.11 0.11 56 1018.1
20260831103231 71 248 9.0 19.0 0.00 0.11 0.11 57 1018.1
20260831102231 71 248 10.0 19.0 0.00 0.11 0.11 57 1018.1
20260831101231 72 248 10.0 24.0 0.00 0.11 0.11 56 1018.1
20260831100231 71 248 12.0 20.0 0.00 0.11 0.11 58 1018.1
20260831095231 71 248 10.0 21.0 0.00 0.11 0.11 58 1018.1
20260831094233 71 248 11.0 22.0 0.00 0.11 0.11 59 1018.2
20260831093233 71 248 10.0 18.0 0.00 0.11 0.11 60 1018.1
20260831092232 70 248 10.0 19.0 0.00 0.11 0.11 63 1018.1
20260831091232 70 270 9.0 19.0 0.00 0.11 0.11 64 1018.0
20260831090232 69 248 11.0 23.0 0.00 0.11 0.11 65 1018.0
20260831085232 69 248 11.0 23.0 0.00 0.11 0.11 66 1018.0
20260831084232 69 270 11.0 20.0 0.00 0.11 0.11 68 1018.0
20260831083232 68 248 10.0 20.0 0.00 0.11 0.11 69 1017.9
20260831082231 68 292 10.0 16.0 0.00 0.11 0.11 74 1017.8
20260831081231 68 270 9.0 16.0 0.00 0.11 0.11 76 1017.6
20260831080231 68 270 8.0 14.0 0.01 0.11 0.11 78 1017.6